Wetterdaten: Dienstag, 30.06.2015
Datum Zeit Temp. I. Temp. A. Boden 5 cm Feuchte A. Sonne Luftdruck Regen Wind Sonnenschein
30.06.2015 00:01 22,5 C 17,9 C 18,2 C 67 % 0 % 1023 hPa 0,0 l/m 0,0 km/h (0 Bft) 0 min
30.06.2015 00:04 22,5 C 17,8 C 18,0 C 67 % 0 % 1023 hPa 0,0 l/m 0,0 km/h (0 Bft) 0 min
30.06.2015 00:07 22,5 C 17,7 C 18,2 C 67 % 0 % 1023 hPa 0,0 l/m 0,0 km/h (0 Bft) 0 min
30.06.2015 00:10 22,5 C 17,5 C 18,0 C 68 % 0 % 1023 hPa 0,0 l/m 0,0 km/h (0 Bft) 0 min
30.06.2015 00:13 22,5 C 17,5 C 18,0 C 68 % 0 % 1023 hPa 0,0 l/m 0,0 km/h (0 Bft) 0 min
30.06.2015 00:16 22,4 C 17,5 C 18,5 C 68 % 0 % 1023 hPa 0,0 l/m 0,0 km/h (0 Bft) 0 min
30.06.2015 00:19 22,4 C 17,5 C 18,4 C 68 % 0 % 1024 hPa 0,0 l/m 0,0 km/h (0 Bft) 0 min
30.06.2015 00:22 22,4 C 17,4 C 18,5 C 69 % 0 % 1023 hPa 0,0 l/m 0,0 km/h (0 Bft) 0 min
30.06.2015 00:25 22,4 C 17,4 C 18,0 C 69 % 0 % 1024 hPa 0,0 l/m 0,0 km/h (0 Bft) 0 min
30.06.2015 00:28 22,4 C 17,3 C 18,0 C 69 % 0 % 1024 hPa 0,0 l/m 0,0 km/h (0 Bft) 0 min
30.06.2015 00:31 22,4 C 17,3 C 18,4 C 69 % 0 % 1024 hPa 0,0 l/m 0,0 km/h (0 Bft) 0 min
30.06.2015 00:34 22,5 C 17,3 C 18,0 C 69 % 0 % 1024 hPa 0,0 l/m 0,0 km/h (0 Bft) 0 min
30.06.2015 00:37 22,4 C 17,3 C 17,7 C 69 % 0 % 1024 hPa 0,0 l/m 0,0 km/h (0 Bft) 0 min
30.06.2015 00:40 22,4 C 17,3 C 17,9 C 69 % 0 % 1024 hPa 0,0 l/m 0,0 km/h (0 Bft) 0 min
30.06.2015 00:43 22,4 C 17,2 C 17,9 C 69 % 0 % 1024 hPa 0,0 l/m 0,0 km/h (0 Bft) 0 min
30.06.2015 00:46 22,4 C 17,2 C 17,6 C 69 % 0 % 1024 hPa 0,0 l/m 0,0 km/h (0 Bft) 0 min
30.06.2015 00:49 22,4 C 17,2 C 17,5 C 69 % 0 % 1024 hPa 0,0 l/m 0,0 km/h (0 Bft) 0 min
30.06.2015 00:52 22,4 C 17,1 C 17,5 C 70 % 0 % 1024 hPa 0,0 l/m 0,0 km/h (0 Bft) 0 min
30.06.2015 01:02 22,4 C 17,0 C 17,4 C 70 % 0 % 1024 hPa 0,0 l/m 0,0 km/h (0 Bft) 0 min
30.06.2015 01:05 22,4 C 16,9 C 17,9 C 70 % 0 % 1024 hPa 0,0 l/m 0,0 km/h (0 Bft) 0 min
30.06.2015 01:08 22,4 C 16,9 C 17,3 C 71 % 0 % 1024 hPa 0,0 l/m 0,0 km/h (0 Bft) 0 min
30.06.2015 01:11 22,4 C 16,8 C 17,3 C 71 % 0 % 1024 hPa 0,0 l/m 0,0 km/h (0 Bft) 0 min
30.06.2015 01:14 22,4 C 16,8 C 17,5 C 71 % 0 % 1024 hPa 0,0 l/m 0,0 km/h (0 Bft) 0 min
30.06.2015 01:17 22,4 C 16,8 C 17,6 C 71 % 0 % 1024 hPa 0,0 l/m 0,0 km/h (0 Bft) 0 min
30.06.2015 01:20 22,4 C 16,8 C 17,7 C 71 % 0 % 1024 hPa 0,0 l/m 0,0 km/h (0 Bft) 0 min
30.06.2015 01:23 22,4 C 16,7 C 17,6 C 72 % 0 % 1024 hPa 0,0 l/m 0,0 km/h (0 Bft) 0 min
30.06.2015 01:26 22,4 C 16,7 C 17,9 C 72 % 0 % 1024 hPa 0,0 l/m 0,0 km/h (0 Bft) 0 min
30.06.2015 01:29 22,4 C 16,7 C 17,5 C 72 % 0 % 1024 hPa 0,0 l/m 0,0 km/h (0 Bft) 0 min
30.06.2015 01:32 22,4 C 16,7 C 17,5 C 72 % 0 % 1024 hPa 0,0 l/m 0,0 km/h (0 Bft) 0 min
30.06.2015 01:35 22,4 C 16,7 C 17,1 C 72 % 0 % 1024 hPa 0,0 l/m 0,0 km/h (0 Bft) 0 min
30.06.2015 01:38 22,4 C 16,6 C 17,2 C 72 % 0 % 1024 hPa 0,0 l/m 0,0 km/h (0 Bft) 0 min
30.06.2015 01:41 22,4 C 16,6 C 17,0 C 73 % 0 % 1023 hPa 0,0 l/m 0,0 km/h (0 Bft) 0 min
30.06.2015 01:44 22,4 C 16,5 C 17,0 C 73 % 0 % 1023 hPa 0,0 l/m 0,0 km/h (0 Bft) 0 min
30.06.2015 01:47 22,4 C 16,5 C 16,9 C 73 % 0 % 1023 hPa 0,0 l/m 0,0 km/h (0 Bft) 0 min
30.06.2015 01:50 22,4 C 16,4 C 17,1 C 73 % 0 % 1023 hPa 0,0 l/m 0,6 km/h (0 Bft) 0 min
30.06.2015 01:53 22,4 C 16,4 C 17,5 C 73 % 0 % 1023 hPa 0,0 l/m 0,0 km/h (0 Bft) 0 min
30.06.2015 01:56 22,4 C 16,4 C 17,3 C 73 % 0 % 1023 hPa 0,0 l/m 0,0 km/h (0 Bft) 0 min
30.06.2015 01:59 22,4 C 16,4 C 17,0 C 73 % 0 % 1023 hPa 0,0 l/m 0,0 km/h (0 Bft) 0 min
30.06.2015 02:02 22,4 C 16,3 C 17,0 C 74 % 0 % 1023 hPa 0,0 l/m 0,0 km/h (0 Bft) 0 min
30.06.2015 02:05 22,4 C 16,3 C 16,8 C 74 % 0 % 1023 hPa 0,0 l/m 0,0 km/h (0 Bft) 0 min
30.06.2015 02:08 22,4 C 16,2 C 17,1 C 74 % 0 % 1023 hPa 0,0 l/m 1,8 km/h (1 Bft) 0 min
30.06.2015 02:11 22,4 C 16,2 C 17,4 C 74 % 0 % 1023 hPa 0,0 l/m 0,0 km/h (0 Bft) 0 min
30.06.2015 02:14 22,4 C 16,1 C 17,2 C 74 % 0 % 1023 hPa 0,0 l/m 0,1 km/h (0 Bft) 0 min
30.06.2015 02:17 22,4 C 16,1 C 16,7 C 74 % 0 % 1023 hPa 0,0 l/m 0,0 km/h (0 Bft) 0 min
30.06.2015 02:20 22,4 C 16,0 C 16,7 C 74 % 0 % 1023 hPa 0,0 l/m 0,0 km/h (0 Bft) 0 min
30.06.2015 02:23 22,4 C 16,0 C 16,7 C 74 % 0 % 1023 hPa 0,0 l/m 0,6 km/h (0 Bft) 0 min
30.06.2015 02:26 22,4 C 15,9 C 16,7 C 74 % 0 % 1023 hPa 0,0 l/m 0,4 km/h (0 Bft) 0 min
30.06.2015 02:29 22,4 C 15,9 C 16,9 C 74 % 0 % 1023 hPa 0,0 l/m 0,0 km/h (0 Bft) 0 min
30.06.2015 02:32 22,4 C 15,9 C 16,7 C 74 % 0 % 1023 hPa 0,0 l/m 0,0 km/h (0 Bft) 0 min
30.06.2015 02:35 22,4 C 15,9 C 16,8 C 75 % 0 % 1023 hPa 0,0 l/m 0,0 km/h (0 Bft) 0 min
30.06.2015 02:38 22,4 C 15,8 C 17,0 C 75 % 0 % 1023 hPa 0,0 l/m 0,0 km/h (0 Bft) 0 min
30.06.2015 02:41 22,4 C 15,8 C 16,8 C 75 % 0 % 1023 hPa 0,0 l/m 0,0 km/h (0 Bft) 0 min
30.06.2015 02:44 22,4 C 15,8 C 16,7 C 75 % 0 % 1023 hPa 0,0 l/m 0,0 km/h (0 Bft) 0 min
30.06.2015 02:47 22,4 C 15,7 C 16,5 C 75 % 0 % 1023 hPa 0,0 l/m 0,0 km/h (0 Bft) 0 min
30.06.2015 02:50 22,4 C 15,7 C 17,1 C 75 % 0 % 1023 hPa 0,0 l/m 0,0 km/h (0 Bft) 0 min
30.06.2015 02:56 22,4 C 15,7 C 17,1 C 75 % 0 % 1023 hPa 0,0 l/m 0,0 km/h (0 Bft) 0 min
30.06.2015 02:59 22,4 C 15,6 C 16,5 C 75 % 0 % 1023 hPa 0,0 l/m 0,0 km/h (0 Bft) 0 min
30.06.2015 03:02 22,4 C 15,6 C 16,5 C 75 % 0 % 1023 hPa 0,0 l/m 0,0 km/h (0 Bft) 0 min
30.06.2015 03:05 22,4 C 15,5 C 16,6 C 75 % 0 % 1023 hPa 0,0 l/m 0,0 km/h (0 Bft) 0 min
30.06.2015 03:08 22,4 C 15,5 C 16,3 C 75 % 0 % 1023 hPa 0,0 l/m 0,0 km/h (0 Bft) 0 min
30.06.2015 03:11 22,4 C 15,5 C 16,2 C 75 % 0 % 1023 hPa 0,0 l/m 0,1 km/h (0 Bft) 0 min
30.06.2015 03:14 22,3 C 15,4 C 16,3 C 76 % 0 % 1023 hPa 0,0 l/m 0,0 km/h (0 Bft) 0 min
30.06.2015 03:17 22,3 C 15,4 C 16,3 C 76 % 0 % 1023 hPa 0,0 l/m 0,0 km/h (0 Bft) 0 min
30.06.2015 03:20 22,3 C 15,4 C 16,4 C 76 % 0 % 1023 hPa 0,0 l/m 0,0 km/h (0 Bft) 0 min
30.06.2015 03:23 22,3 C 15,4 C 16,3 C 76 % 0 % 1023 hPa 0,0 l/m 0,0 km/h (0 Bft) 0 min
30.06.2015 03:26 22,3 C 15,3 C 16,3 C 76 % 0 % 1023 hPa 0,0 l/m 0,0 km/h (0 Bft) 0 min
30.06.2015 03:29 22,3 C 15,3 C 16,8 C 76 % 0 % 1023 hPa 0,0 l/m 0,0 km/h (0 Bft) 0 min
30.06.2015 03:32 22,3 C 15,3 C 16,8 C 76 % 0 % 1023 hPa 0,0 l/m 0,0 km/h (0 Bft) 0 min
30.06.2015 03:35 22,3 C 15,2 C 16,1 C 76 % 0 % 1023 hPa 0,0 l/m 0,0 km/h (0 Bft) 0 min
30.06.2015 03:38 22,3 C 15,2 C 16,1 C 76 % 0 % 1023 hPa 0,0 l/m 0,0 km/h (0 Bft) 0 min
30.06.2015 03:41 22,3 C 15,2 C 16,6 C 76 % 0 % 1023 hPa 0,0 l/m 0,0 km/h (0 Bft) 0 min
30.06.2015 03:44 22,3 C 15,2 C 16,3 C 76 % 0 % 1023 hPa 0,0 l/m 0,0 km/h (0 Bft) 0 min
30.06.2015 03:47 22,3 C 15,1 C 16,6 C 76 % 0 % 1023 hPa 0,0 l/m 0,0 km/h (0 Bft) 0 min
30.06.2015 03:50 22,3 C 15,1 C 16,1 C 76 % 0 % 1023 hPa 0,0 l/m 0,0 km/h (0 Bft) 0 min
30.06.2015 03:53 22,3 C 15,1 C 16,1 C 77 % 0 % 1023 hPa 0,0 l/m 0,0 km/h (0 Bft) 0 min
30.06.2015 03:56 22,3 C 15,1 C 16,0 C 77 % 0 % 1023 hPa 0,0 l/m 0,0 km/h (0 Bft) 0 min
30.06.2015 03:59 22,3 C 15,0 C 15,9 C 77 % 0 % 1023 hPa 0,0 l/m 0,0 km/h (0 Bft) 0 min
30.06.2015 04:02 22,3 C 15,0 C 15,9 C 77 % 0 % 1023 hPa 0,0 l/m 0,0 km/h (0 Bft) 0 min
30.06.2015 04:05 22,3 C 14,9 C 16,1 C 77 % 0 % 1023 hPa 0,0 l/m 0,0 km/h (0 Bft) 0 min
30.06.2015 04:08 22,3 C 14,9 C 16,0 C 77 % 0 % 1023 hPa 0,0 l/m 0,0 km/h (0 Bft) 0 min
30.06.2015 04:11 22,3 C 14,9 C 16,0 C 77 % 0 % 1023 hPa 0,0 l/m 0,0 km/h (0 Bft) 0 min
30.06.2015 04:14 22,3 C 14,8 C 15,9 C 77 % 0 % 1023 hPa 0,0 l/m 0,0 km/h (0 Bft) 0 min
30.06.2015 04:17 22,3 C 14,8 C 16,3 C 77 % 0 % 1023 hPa 0,0 l/m 0,0 km/h (0 Bft) 0 min
30.06.2015 04:20 22,3 C 14,8 C 16,4 C 77 % 0 % 1023 hPa 0,0 l/m 0,0 km/h (0 Bft) 0 min
30.06.2015 04:23 22,3 C 14,7 C 16,4 C 78 % 0 % 1023 hPa 0,0 l/m 1,0 km/h (0 Bft) 0 min
30.06.2015 04:26 22,3 C 14,7 C 16,4 C 78 % 0 % 1023 hPa 0,0 l/m 0,0 km/h (0 Bft) 0 min
30.06.2015 04:29 22,3 C 14,6 C 15,8 C 78 % 0 % 1023 hPa 0,0 l/m 0,0 km/h (0 Bft) 0 min
30.06.2015 04:32 22,3 C 14,6 C 16,1 C 78 % 0 % 1023 hPa 0,0 l/m 0,0 km/h (0 Bft) 0 min
30.06.2015 04:35 22,3 C 14,6 C 15,8 C 78 % 0 % 1023 hPa 0,0 l/m 0,0 km/h (0 Bft) 0 min
30.06.2015 04:38 22,3 C 14,5 C 16,2 C 78 % 0 % 1023 hPa 0,0 l/m 0,0 km/h (0 Bft) 0 min
30.06.2015 04:41 22,3 C 14,5 C 16,2 C 78 % 0 % 1023 hPa 0,0 l/m 0,0 km/h (0 Bft) 0 min
30.06.2015 04:44 22,3 C 14,5 C 15,8 C 78 % 0 % 1023 hPa 0,0 l/m 0,0 km/h (0 Bft) 0 min
30.06.2015 04:47 22,2 C 14,4 C 15,6 C 78 % 0 % 1023 hPa 0,0 l/m 0,0 km/h (0 Bft) 0 min
30.06.2015 04:50 22,2 C 14,3 C 15,4 C 78 % 0 % 1023 hPa 0,0 l/m 0,0 km/h (0 Bft) 0 min
30.06.2015 04:56 22,2 C 14,3 C 15,3 C 78 % 0 % 1023 hPa 0,0 l/m 0,0 km/h (0 Bft) 0 min
30.06.2015 04:59 22,2 C 14,3 C 15,4 C 78 % 0 % 1023 hPa 0,0 l/m 0,0 km/h (0 Bft) 0 min
30.06.2015 05:02 22,2 C 14,3 C 15,3 C 79 % 0 % 1023 hPa 0,0 l/m 0,0 km/h (0 Bft) 0 min
30.06.2015 05:05 22,2 C 14,2 C 16,0 C 79 % 1 % 1023 hPa 0,0 l/m 0,0 km/h (0 Bft) 0 min
30.06.2015 05:08 22,2 C 14,2 C 15,8 C 79 % 1 % 1023 hPa 0,0 l/m 0,0 km/h (0 Bft) 0 min
30.06.2015 05:11 22,2 C 14,2 C 15,9 C 79 % 1 % 1023 hPa 0,0 l/m 0,0 km/h (0 Bft) 0 min
30.06.2015 05:14 22,2 C 14,2 C 15,5 C 79 % 1 % 1023 hPa 0,0 l/m 0,0 km/h (0 Bft) 0 min
30.06.2015 05:17 22,2 C 14,2 C 15,4 C 79 % 2 % 1023 hPa 0,0 l/m 0,0 km/h (0 Bft) 0 min
30.06.2015 05:20 22,2 C 14,2 C 15,6 C 79 % 2 % 1023 hPa 0,0 l/m 0,0 km/h (0 Bft) 0 min
30.06.2015 05:23 22,2 C 14,1 C 15,4 C 79 % 3 % 1023 hPa 0,0 l/m 0,0 km/h (0 Bft) 3 min
30.06.2015 05:26 22,2 C 14,1 C 15,6 C 79 % 3 % 1023 hPa 0,0 l/m 0,0 km/h (0 Bft) 3 min
30.06.2015 05:29 22,2 C 14,1 C 15,8 C 79 % 3 % 1023 hPa 0,0 l/m 0,0 km/h (0 Bft) 3 min
30.06.2015 05:32 22,2 C 14,1 C 15,9 C 80 % 4 % 1023 hPa 0,0 l/m 0,0 km/h (0 Bft) 3 min
30.06.2015 05:35 22,2 C 14,1 C 15,8 C 80 % 5 % 1023 hPa 0,0 l/m 0,0 km/h (0 Bft) 3 min
30.06.2015 05:38 22,2 C 14,1 C 15,8 C 80 % 5 % 1023 hPa 0,0 l/m 0,0 km/h (0 Bft) 3 min
30.06.2015 05:41 22,2 C 14,1 C 15,7 C 80 % 6 % 1023 hPa 0,0 l/m 0,0 km/h (0 Bft) 3 min
30.06.2015 05:44 22,2 C 14,1 C 15,4 C 80 % 7 % 1023 hPa 0,0 l/m 0,0 km/h (0 Bft) 3 min
30.06.2015 05:47 22,2 C 14,1 C 15,4 C 80 % 7 % 1023 hPa 0,0 l/m 0,0 km/h (0 Bft) 3 min
30.06.2015 05:50 22,3 C 14,1 C 15,3 C 80 % 7 % 1023 hPa 0,0 l/m 0,0 km/h (0 Bft) 3 min
30.06.2015 05:56 22,2 C 14,1 C 15,2 C 80 % 7 % 1023 hPa 0,0 l/m 0,0 km/h (0 Bft) 3 min
30.06.2015 05:59 22,2 C 14,1 C 15,7 C 80 % 7 % 1023 hPa 0,0 l/m 0,0 km/h (0 Bft) 0 min
30.06.2015 06:02 22,2 C 14,1 C 15,6 C 80 % 8 % 1023 hPa 0,0 l/m 0,0 km/h (0 Bft) 3 min
30.06.2015 06:05 22,2 C 14,1 C 15,3 C 80 % 9 % 1024 hPa 0,0 l/m 0,0 km/h (0 Bft) 3 min
30.06.2015 06:08 22,2 C 14,2 C 15,5 C 80 % 9 % 1024 hPa 0,0 l/m 0,0 km/h (0 Bft) 3 min
30.06.2015 06:11 22,2 C 14,2 C 15,5 C 81 % 10 % 1024 hPa 0,0 l/m 0,5 km/h (0 Bft) 3 min
30.06.2015 06:14 22,1 C 14,2 C 15,3 C 81 % 11 % 1024 hPa 0,0 l/m 0,5 km/h (0 Bft) 3 min
30.06.2015 06:17 22,0 C 14,2 C 15,3 C 81 % 12 % 1024 hPa 0,0 l/m 0,5 km/h (0 Bft) 3 min
30.06.2015 06:20 22,0 C 14,3 C 15,3 C 81 % 12 % 1024 hPa 0,0 l/m 0,0 km/h (0 Bft) 3 min
30.06.2015 06:23 21,9 C 14,3 C 15,8 C 81 % 14 % 1024 hPa 0,0 l/m 0,0 km/h (0 Bft) 3 min
30.06.2015 06:26 21,9 C 14,4 C 15,6 C 81 % 15 % 1024 hPa 0,0 l/m 0,0 km/h (0 Bft) 3 min
30.06.2015 06:29 21,8 C 14,4 C 15,7 C 81 % 16 % 1024 hPa 0,0 l/m 0,0 km/h (0 Bft) 3 min
30.06.2015 06:32 21,8 C 14,5 C 15,8 C 81 % 17 % 1024 hPa 0,0 l/m 0,0 km/h (0 Bft) 3 min
30.06.2015 06:35 21,8 C 14,6 C 15,9 C 81 % 18 % 1024 hPa 0,0 l/m 0,0 km/h (0 Bft) 3 min
30.06.2015 06:38 21,8 C 14,7 C 16,1 C 81 % 18 % 1024 hPa 0,0 l/m 0,0 km/h (0 Bft) 3 min
30.06.2015 06:41 21,8 C 14,8 C 16,3 C 81 % 22 % 1024 hPa 0,0 l/m 0,0 km/h (0 Bft) 3 min
30.06.2015 06:44 21,8 C 14,9 C 16,8 C 81 % 22 % 1024 hPa 0,0 l/m 0,0 km/h (0 Bft) 3 min
30.06.2015 06:47 21,8 C 15,0 C 16,5 C 81 % 25 % 1024 hPa 0,0 l/m 0,0 km/h (0 Bft) 3 min
30.06.2015 06:50 21,8 C 15,1 C 16,9 C 81 % 27 % 1024 hPa 0,0 l/m 0,0 km/h (0 Bft) 3 min
30.06.2015 06:53 21,8 C 15,2 C 17,0 C 81 % 30 % 1024 hPa 0,0 l/m 0,1 km/h (0 Bft) 3 min
30.06.2015 06:56 21,8 C 15,4 C 17,3 C 81 % 35 % 1024 hPa 0,0 l/m 1,0 km/h (0 Bft) 3 min
30.06.2015 06:59 21,8 C 15,6 C 17,5 C 81 % 37 % 1024 hPa 0,0 l/m 0,7 km/h (0 Bft) 3 min
30.06.2015 07:02 21,8 C 15,7 C 17,3 C 81 % 36 % 1024 hPa 0,0 l/m 1,9 km/h (1 Bft) 3 min
30.06.2015 07:05 21,6 C 15,8 C 17,2 C 80 % 36 % 1024 hPa 0,0 l/m 1,3 km/h (1 Bft) 3 min
30.06.2015 07:08 21,6 C 15,9 C 17,5 C 80 % 35 % 1024 hPa 0,0 l/m 1,5 km/h (1 Bft) 3 min
30.06.2015 07:11 21,6 C 16,0 C 18,3 C 80 % 38 % 1024 hPa 0,0 l/m 0,0 km/h (0 Bft) 3 min
30.06.2015 07:14 21,6 C 16,1 C 18,3 C 80 % 38 % 1024 hPa 0,0 l/m 0,0 km/h (0 Bft) 3 min
30.06.2015 07:17 21,7 C 16,2 C 18,3 C 79 % 41 % 1024 hPa 0,0 l/m 2,7 km/h (1 Bft) 3 min
30.06.2015 07:20 21,8 C 16,6 C 18,4 C 79 % 41 % 1024 hPa 0,0 l/m 4,3 km/h (1 Bft) 3 min
30.06.2015 07:23 21,8 C 16,7 C 18,9 C 79 % 36 % 1024 hPa 0,0 l/m 0,6 km/h (0 Bft) 3 min
30.06.2015 07:26 21,8 C 16,8 C 19,2 C 78 % 36 % 1024 hPa 0,0 l/m 0,9 km/h (0 Bft) 3 min
30.06.2015 07:29 22,0 C 16,9 C 18,2 C 78 % 39 % 1024 hPa 0,0 l/m 2,3 km/h (1 Bft) 3 min
30.06.2015 07:32 22,0 C 17,0 C 18,6 C 78 % 41 % 1024 hPa 0,0 l/m 1,1 km/h (1 Bft) 3 min
30.06.2015 07:35 22,0 C 17,1 C 18,8 C 77 % 45 % 1024 hPa 0,0 l/m 2,7 km/h (1 Bft) 3 min
30.06.2015 07:38 22,0 C 17,2 C 18,1 C 77 % 42 % 1023 hPa 0,0 l/m 4,8 km/h (1 Bft) 3 min
30.06.2015 07:41 22,0 C 17,3 C 19,2 C 77 % 44 % 1024 hPa 0,0 l/m 4,2 km/h (1 Bft) 3 min
30.06.2015 07:44 22,0 C 17,4 C 19,4 C 76 % 42 % 1024 hPa 0,0 l/m 5,8 km/h (2 Bft) 3 min
30.06.2015 07:47 22,0 C 17,4 C 19,8 C 76 % 42 % 1024 hPa 0,0 l/m 4,8 km/h (1 Bft) 3 min
30.06.2015 07:50 22,0 C 17,6 C 18,5 C 76 % 45 % 1024 hPa 0,0 l/m 3,7 km/h (1 Bft) 3 min
30.06.2015 07:53 22,0 C 17,6 C 18,2 C 76 % 43 % 1024 hPa 0,0 l/m 4,7 km/h (1 Bft) 3 min
30.06.2015 07:56 22,0 C 17,7 C 18,3 C 75 % 45 % 1023 hPa 0,0 l/m 4,2 km/h (1 Bft) 3 min
30.06.2015 07:59 22,1 C 17,9 C 18,3 C 75 % 47 % 1023 hPa 0,0 l/m 3,6 km/h (1 Bft) 3 min
30.06.2015 08:02 22,1 C 18,0 C 18,6 C 75 % 49 % 1023 hPa 0,0 l/m 3,3 km/h (1 Bft) 3 min
30.06.2015 08:05 22,1 C 18,1 C 18,0 C 75 % 54 % 1023 hPa 0,0 l/m 0,1 km/h (0 Bft) 3 min
30.06.2015 08:08 22,0 C 18,2 C 18,6 C 74 % 54 % 1023 hPa 0,0 l/m 0,1 km/h (0 Bft) 3 min
30.06.2015 08:11 22,0 C 18,5 C 19,3 C 74 % 58 % 1023 hPa 0,0 l/m 2,9 km/h (1 Bft) 3 min
30.06.2015 08:14 22,1 C 18,7 C 19,3 C 74 % 64 % 1024 hPa 0,0 l/m 2,9 km/h (1 Bft) 3 min
30.06.2015 08:17 22,1 C 18,8 C 19,2 C 73 % 64 % 1024 hPa 0,0 l/m 4,4 km/h (1 Bft) 3 min
30.06.2015 08:20 22,1 C 19,0 C 19,6 C 73 % 61 % 1024 hPa 0,0 l/m 4,8 km/h (1 Bft) 3 min
30.06.2015 08:23 22,1 C 19,1 C 19,4 C 72 % 61 % 1024 hPa 0,0 l/m 2,9 km/h (1 Bft) 3 min
30.06.2015 08:26 22,1 C 19,2 C 19,4 C 72 % 61 % 1024 hPa 0,0 l/m 3,9 km/h (1 Bft) 3 min
30.06.2015 08:29 22,1 C 19,3 C 19,4 C 71 % 61 % 1024 hPa 0,0 l/m 5,6 km/h (1 Bft) 3 min
30.06.2015 08:32 22,1 C 19,4 C 19,4 C 71 % 57 % 1024 hPa 0,0 l/m 5,0 km/h (1 Bft) 3 min
30.06.2015 08:35 22,1 C 19,4 C 19,2 C 71 % 58 % 1024 hPa 0,0 l/m 2,8 km/h (1 Bft) 3 min
30.06.2015 08:38 22,1 C 19,6 C 19,0 C 70 % 53 % 1024 hPa 0,0 l/m 4,8 km/h (1 Bft) 3 min
30.06.2015 08:41 22,1 C 19,7 C 19,3 C 70 % 54 % 1024 hPa 0,0 l/m 4,8 km/h (1 Bft) 3 min
30.06.2015 08:44 22,1 C 19,8 C 19,6 C 70 % 55 % 1024 hPa 0,0 l/m 4,7 km/h (1 Bft) 3 min
30.06.2015 08:47 22,2 C 20,0 C 19,6 C 70 % 52 % 1024 hPa 0,0 l/m 2,8 km/h (1 Bft) 3 min
30.06.2015 08:50 22,2 C 20,1 C 19,6 C 69 % 53 % 1024 hPa 0,0 l/m 4,2 km/h (1 Bft) 3 min
30.06.2015 08:53 22,2 C 20,3 C 19,0 C 68 % 54 % 1024 hPa 0,0 l/m 5,5 km/h (1 Bft) 3 min
30.06.2015 08:56 22,2 C 20,4 C 19,2 C 68 % 54 % 1024 hPa 0,0 l/m 5,5 km/h (1 Bft) 3 min
30.06.2015 08:59 22,2 C 20,5 C 19,2 C 68 % 54 % 1024 hPa 0,0 l/m 0,4 km/h (0 Bft) 3 min
30.06.2015 09:02 22,1 C 20,6 C 19,2 C 68 % 46 % 1024 hPa 0,0 l/m 3,8 km/h (1 Bft) 3 min
30.06.2015 09:05 22,2 C 20,7 C 19,8 C 67 % 46 % 1024 hPa 0,0 l/m 5,4 km/h (1 Bft) 3 min
30.06.2015 09:08 22,2 C 20,8 C 19,8 C 67 % 46 % 1024 hPa 0,0 l/m 6,6 km/h (2 Bft) 3 min
30.06.2015 09:11 22,2 C 20,9 C 19,6 C 66 % 52 % 1024 hPa 0,0 l/m 4,3 km/h (1 Bft) 3 min
30.06.2015 09:14 22,2 C 20,9 C 19,8 C 66 % 48 % 1024 hPa 0,0 l/m 5,4 km/h (1 Bft) 3 min
30.06.2015 09:17 22,2 C 21,2 C 20,0 C 66 % 48 % 1024 hPa 0,0 l/m 3,7 km/h (1 Bft) 3 min
30.06.2015 09:20 22,2 C 21,5 C 19,7 C 65 % 51 % 1024 hPa 0,0 l/m 3,8 km/h (1 Bft) 3 min
30.06.2015 09:23 22,2 C 21,5 C 19,5 C 65 % 52 % 1024 hPa 0,0 l/m 0,4 km/h (0 Bft) 3 min
30.06.2015 09:26 22,2 C 21,6 C 19,7 C 64 % 55 % 1024 hPa 0,0 l/m 0,4 km/h (0 Bft) 3 min
30.06.2015 09:29 22,2 C 21,8 C 20,1 C 64 % 50 % 1024 hPa 0,0 l/m 0,0 km/h (0 Bft) 3 min
30.06.2015 09:32 22,2 C 22,0 C 19,8 C 64 % 50 % 1024 hPa 0,0 l/m 0,3 km/h (0 Bft) 3 min
30.06.2015 09:35 22,2 C 22,2 C 20,3 C 63 % 54 % 1024 hPa 0,0 l/m 7,4 km/h (2 Bft) 3 min
30.06.2015 09:38 22,2 C 22,2 C 20,3 C 62 % 54 % 1024 hPa 0,0 l/m 0,8 km/h (0 Bft) 3 min
30.06.2015 09:41 22,2 C 22,3 C 20,4 C 62 % 54 % 1024 hPa 0,0 l/m 3,1 km/h (1 Bft) 3 min
30.06.2015 09:44 22,3 C 22,6 C 20,1 C 61 % 57 % 1024 hPa 0,0 l/m 4,7 km/h (1 Bft) 3 min
30.06.2015 09:47 22,3 C 22,7 C 20,1 C 60 % 57 % 1024 hPa 0,0 l/m 6,0 km/h (2 Bft) 3 min
30.06.2015 09:50 22,3 C 22,8 C 20,1 C 60 % 54 % 1024 hPa 0,0 l/m 0,3 km/h (0 Bft) 3 min
30.06.2015 09:53 22,3 C 22,9 C 20,2 C 59 % 56 % 1024 hPa 0,0 l/m 2,0 km/h (1 Bft) 3 min
30.06.2015 09:56 22,3 C 22,9 C 20,4 C 59 % 60 % 1023 hPa 0,0 l/m 0,4 km/h (0 Bft) 3 min
30.06.2015 09:59 22,3 C 23,0 C 20,7 C 59 % 64 % 1023 hPa 0,0 l/m 3,9 km/h (1 Bft) 3 min
30.06.2015 10:02 22,3 C 23,2 C 20,6 C 58 % 64 % 1023 hPa 0,0 l/m 5,2 km/h (1 Bft) 3 min
30.06.2015 10:05 22,3 C 23,3 C 20,7 C 58 % 64 % 1023 hPa 0,0 l/m 6,7 km/h (2 Bft) 3 min
30.06.2015 10:08 22,4 C 23,5 C 20,6 C 57 % 71 % 1023 hPa 0,0 l/m 5,4 km/h (1 Bft) 3 min
30.06.2015 10:11 22,3 C 23,6 C 20,7 C 56 % 69 % 1023 hPa 0,0 l/m 3,7 km/h (1 Bft) 3 min
30.06.2015 10:14 22,3 C 23,7 C 20,7 C 54 % 69 % 1023 hPa 0,0 l/m 3,9 km/h (1 Bft) 3 min
30.06.2015 10:17 22,3 C 23,9 C 20,7 C 55 % 74 % 1023 hPa 0,0 l/m 3,0 km/h (1 Bft) 3 min
30.06.2015 10:20 22,3 C 24,2 C 21,0 C 55 % 76 % 1023 hPa 0,0 l/m 4,6 km/h (1 Bft) 3 min
30.06.2015 10:23 22,3 C 24,4 C 21,1 C 53 % 76 % 1023 hPa 0,0 l/m 5,6 km/h (1 Bft) 3 min
30.06.2015 10:26 22,3 C 24,4 C 21,1 C 52 % 73 % 1023 hPa 0,0 l/m 7,7 km/h (2 Bft) 3 min
30.06.2015 10:29 22,4 C 24,3 C 21,1 C 51 % 73 % 1023 hPa 0,0 l/m 5,2 km/h (1 Bft) 3 min
30.06.2015 10:32 22,3 C 24,4 C 21,1 C 51 % 78 % 1023 hPa 0,0 l/m 0,4 km/h (0 Bft) 3 min
30.06.2015 10:35 22,3 C 24,5 C 21,3 C 51 % 73 % 1023 hPa 0,0 l/m 1,2 km/h (1 Bft) 3 min
30.06.2015 10:38 22,4 C 24,6 C 21,7 C 49 % 75 % 1023 hPa 0,0 l/m 5,5 km/h (1 Bft) 3 min
30.06.2015 10:41 22,3 C 24,7 C 21,8 C 50 % 78 % 1023 hPa 0,0 l/m 7,0 km/h (2 Bft) 3 min
30.06.2015 10:44 22,4 C 24,8 C 21,7 C 49 % 78 % 1023 hPa 0,0 l/m 3,9 km/h (1 Bft) 3 min
30.06.2015 10:47 22,4 C 25,0 C 21,6 C 48 % 76 % 1023 hPa 0,0 l/m 5,7 km/h (1 Bft) 3 min
30.06.2015 10:50 22,4 C 24,9 C 21,7 C 48 % 71 % 1023 hPa 0,0 l/m 5,7 km/h (1 Bft) 3 min
30.06.2015 10:53 22,3 C 25,0 C 21,8 C 48 % 71 % 1023 hPa 0,0 l/m 5,3 km/h (1 Bft) 3 min
30.06.2015 10:56 22,3 C 25,1 C 21,7 C 48 % 73 % 1023 hPa 0,0 l/m 0,7 km/h (0 Bft) 3 min
30.06.2015 10:59 22,3 C 25,1 C 21,8 C 46 % 76 % 1023 hPa 0,0 l/m 6,0 km/h (2 Bft) 3 min
30.06.2015 11:02 22,4 C 25,2 C 22,0 C 47 % 77 % 1023 hPa 0,0 l/m 5,7 km/h (1 Bft) 3 min
30.06.2015 11:05 22,4 C 25,4 C 21,9 C 47 % 76 % 1023 hPa 0,0 l/m 2,7 km/h (1 Bft) 3 min
30.06.2015 11:08 22,4 C 25,4 C 22,2 C 46 % 77 % 1023 hPa 0,0 l/m 6,4 km/h (2 Bft) 3 min
30.06.2015 11:11 22,4 C 25,4 C 22,0 C 45 % 77 % 1023 hPa 0,0 l/m 5,2 km/h (1 Bft) 3 min
30.06.2015 11:14 22,4 C 25,6 C 22,1 C 45 % 77 % 1023 hPa 0,0 l/m 5,2 km/h (1 Bft) 3 min
30.06.2015 11:17 22,3 C 25,7 C 22,2 C 45 % 78 % 1023 hPa 0,0 l/m 4,2 km/h (1 Bft) 3 min
30.06.2015 11:20 22,4 C 25,9 C 22,5 C 45 % 78 % 1023 hPa 0,0 l/m 5,0 km/h (1 Bft) 3 min
30.06.2015 11:23 22,4 C 25,9 C 22,7 C 45 % 76 % 1023 hPa 0,0 l/m 4,9 km/h (1 Bft) 3 min
30.06.2015 11:26 22,4 C 26,0 C 22,9 C 44 % 78 % 1023 hPa 0,0 l/m 7,4 km/h (2 Bft) 3 min
30.06.2015 11:29 22,4 C 26,0 C 22,8 C 44 % 78 % 1023 hPa 0,0 l/m 7,8 km/h (2 Bft) 3 min
30.06.2015 11:32 22,4 C 26,0 C 22,8 C 44 % 78 % 1023 hPa 0,0 l/m 7,8 km/h (2 Bft) 3 min
30.06.2015 11:35 22,4 C 26,1 C 22,8 C 44 % 78 % 1023 hPa 0,0 l/m 6,8 km/h (2 Bft) 3 min
30.06.2015 11:38 22,4 C 26,1 C 22,9 C 43 % 78 % 1023 hPa 0,0 l/m 8,8 km/h (2 Bft) 3 min
30.06.2015 11:41 22,4 C 26,1 C 22,9 C 43 % 77 % 1023 hPa 0,0 l/m 7,4 km/h (2 Bft) 3 min
30.06.2015 11:44 22,4 C 26,2 C 22,7 C 43 % 77 % 1023 hPa 0,0 l/m 2,4 km/h (1 Bft) 3 min
30.06.2015 11:47 22,4 C 26,4 C 22,8 C 43 % 78 % 1023 hPa 0,0 l/m 6,3 km/h (2 Bft) 3 min
30.06.2015 11:50 22,4 C 26,5 C 22,8 C 43 % 77 % 1023 hPa 0,0 l/m 8,5 km/h (2 Bft) 3 min
30.06.2015 11:53 22,4 C 26,5 C 23,1 C 42 % 77 % 1023 hPa 0,0 l/m 3,1 km/h (1 Bft) 3 min
30.06.2015 11:56 22,4 C 26,6 C 23,2 C 42 % 77 % 1023 hPa 0,0 l/m 3,1 km/h (1 Bft) 3 min
30.06.2015 11:59 22,4 C 26,6 C 23,3 C 42 % 77 % 1023 hPa 0,0 l/m 6,7 km/h (2 Bft) 3 min
30.06.2015 12:02 22,4 C 26,7 C 23,1 C 42 % 77 % 1023 hPa 0,0 l/m 6,5 km/h (2 Bft) 3 min
30.06.2015 12:05 22,4 C 26,7 C 23,3 C 41 % 77 % 1023 hPa 0,0 l/m 9,6 km/h (2 Bft) 3 min
30.06.2015 12:08 22,4 C 26,7 C 23,5 C 40 % 77 % 1023 hPa 0,0 l/m 9,4 km/h (2 Bft) 3 min
30.06.2015 12:11 22,5 C 26,7 C 23,7 C 40 % 77 % 1023 hPa 0,0 l/m 10,5 km/h (2 Bft) 3 min
30.06.2015 12:14 22,5 C 26,8 C 23,4 C 39 % 77 % 1023 hPa 0,0 l/m 10,5 km/h (2 Bft) 3 min
30.06.2015 12:17 22,5 C 26,8 C 23,5 C 39 % 77 % 1023 hPa 0,0 l/m 2,5 km/h (1 Bft) 3 min
30.06.2015 12:20 22,5 C 26,9 C 23,5 C 40 % 77 % 1023 hPa 0,0 l/m 8,5 km/h (2 Bft) 3 min
30.06.2015 12:23 22,5 C 27,1 C 23,9 C 39 % 73 % 1023 hPa 0,0 l/m 17,1 km/h (3 Bft) 3 min
30.06.2015 12:26 22,5 C 27,0 C 23,7 C 38 % 73 % 1023 hPa 0,0 l/m 7,9 km/h (2 Bft) 3 min
30.06.2015 12:29 22,5 C 27,0 C 23,8 C 38 % 74 % 1023 hPa 0,0 l/m 7,3 km/h (2 Bft) 3 min
30.06.2015 12:32 22,5 C 27,3 C 23,9 C 38 % 78 % 1023 hPa 0,0 l/m 8,3 km/h (2 Bft) 3 min
30.06.2015 12:35 22,4 C 27,4 C 24,2 C 39 % 78 % 1023 hPa 0,0 l/m 1,6 km/h (1 Bft) 3 min
30.06.2015 12:38 22,5 C 27,4 C 24,1 C 37 % 78 % 1023 hPa 0,0 l/m 7,0 km/h (2 Bft) 3 min
30.06.2015 12:41 22,4 C 27,6 C 24,0 C 38 % 78 % 1023 hPa 0,0 l/m 10,1 km/h (2 Bft) 3 min
30.06.2015 12:44 22,4 C 27,6 C 24,0 C 36 % 78 % 1023 hPa 0,0 l/m 7,0 km/h (2 Bft) 3 min
30.06.2015 12:47 22,4 C 27,7 C 24,4 C 36 % 78 % 1023 hPa 0,0 l/m 2,5 km/h (1 Bft) 3 min
30.06.2015 12:50 22,4 C 27,7 C 24,2 C 36 % 78 % 1023 hPa 0,0 l/m 2,5 km/h (1 Bft) 3 min
30.06.2015 12:53 22,5 C 27,8 C 24,4 C 36 % 78 % 1023 hPa 0,0 l/m 5,2 km/h (1 Bft) 3 min
30.06.2015 12:56 22,5 C 27,8 C 24,3 C 35 % 78 % 1023 hPa 0,0 l/m 7,4 km/h (2 Bft) 3 min
30.06.2015 12:59 22,5 C 27,7 C 24,4 C 35 % 78 % 1023 hPa 0,0 l/m 7,9 km/h (2 Bft) 3 min
30.06.2015 13:02 22,5 C 27,9 C 24,9 C 36 % 79 % 1023 hPa 0,0 l/m 5,4 km/h (1 Bft) 3 min
30.06.2015 13:05 22,5 C 28,0 C 24,8 C 34 % 79 % 1023 hPa 0,0 l/m 5,2 km/h (1 Bft) 3 min
30.06.2015 13:08 22,5 C 28,0 C 24,8 C 34 % 79 % 1023 hPa 0,0 l/m 5,2 km/h (1 Bft) 3 min
30.06.2015 13:11 22,6 C 28,0 C 25,1 C 34 % 79 % 1023 hPa 0,0 l/m 14,1 km/h (3 Bft) 3 min
30.06.2015 13:14 22,6 C 27,8 C 25,0 C 33 % 79 % 1023 hPa 0,0 l/m 14,7 km/h (3 Bft) 3 min
30.06.2015 13:17 22,5 C 27,9 C 25,2 C 35 % 79 % 1023 hPa 0,0 l/m 11,0 km/h (2 Bft) 3 min
30.06.2015 13:20 22,5 C 28,0 C 25,2 C 35 % 79 % 1023 hPa 0,0 l/m 5,9 km/h (2 Bft) 3 min
30.06.2015 13:23 22,5 C 28,0 C 25,1 C 35 % 79 % 1023 hPa 0,0 l/m 11,5 km/h (2 Bft) 3 min
30.06.2015 13:26 22,5 C 28,1 C 25,0 C 33 % 79 % 1023 hPa 0,0 l/m 8,7 km/h (2 Bft) 3 min
30.06.2015 13:29 22,5 C 28,1 C 24,8 C 35 % 79 % 1023 hPa 0,0 l/m 9,6 km/h (2 Bft) 3 min
30.06.2015 13:32 22,5 C 28,2 C 24,7 C 34 % 79 % 1023 hPa 0,0 l/m 0,9 km/h (0 Bft) 3 min
30.06.2015 13:35 22,6 C 28,3 C 25,1 C 33 % 79 % 1023 hPa 0,0 l/m 4,2 km/h (1 Bft) 3 min
30.06.2015 13:38 22,5 C 28,5 C 25,3 C 34 % 79 % 1023 hPa 0,0 l/m 4,2 km/h (1 Bft) 3 min
30.06.2015 13:41 22,6 C 28,6 C 25,8 C 33 % 79 % 1023 hPa 0,0 l/m 10,3 km/h (2 Bft) 3 min
30.06.2015 13:44 22,6 C 28,6 C 25,7 C 33 % 79 % 1023 hPa 0,0 l/m 7,4 km/h (2 Bft) 3 min
30.06.2015 13:47 22,6 C 28,3 C 25,4 C 33 % 80 % 1023 hPa 0,0 l/m 9,8 km/h (2 Bft) 3 min
30.06.2015 13:50 22,6 C 28,3 C 25,7 C 31 % 80 % 1023 hPa 0,0 l/m 11,1 km/h (2 Bft) 3 min
30.06.2015 13:53 22,6 C 28,1 C 25,6 C 32 % 80 % 1023 hPa 0,0 l/m 11,1 km/h (2 Bft) 3 min
30.06.2015 13:56 22,6 C 28,2 C 26,0 C 34 % 80 % 1023 hPa 0,0 l/m 7,8 km/h (2 Bft) 3 min
30.06.2015 13:59 22,6 C 28,5 C 25,7 C 33 % 79 % 1023 hPa 0,0 l/m 8,7 km/h (2 Bft) 3 min
30.06.2015 14:02 22,6 C 28,4 C 26,2 C 32 % 79 % 1023 hPa 0,0 l/m 4,8 km/h (1 Bft) 3 min
30.06.2015 14:05 22,7 C 28,4 C 26,4 C 32 % 79 % 1023 hPa 0,0 l/m 8,1 km/h (2 Bft) 3 min
30.06.2015 14:08 22,7 C 28,5 C 26,7 C 32 % 79 % 1023 hPa 0,0 l/m 9,6 km/h (2 Bft) 3 min
30.06.2015 14:11 22,7 C 28,6 C 26,6 C 32 % 79 % 1023 hPa 0,0 l/m 5,1 km/h (1 Bft) 3 min
30.06.2015 14:14 22,8 C 28,6 C 26,9 C 32 % 79 % 1022 hPa 0,0 l/m 3,6 km/h (1 Bft) 3 min
30.06.2015 14:17 22,8 C 28,6 C 26,5 C 31 % 79 % 1022 hPa 0,0 l/m 5,7 km/h (1 Bft) 3 min
30.06.2015 14:20 22,8 C 28,6 C 27,1 C 32 % 79 % 1022 hPa 0,0 l/m 9,2 km/h (2 Bft) 3 min
30.06.2015 14:23 22,8 C 28,7 C 27,0 C 31 % 79 % 1022 hPa 0,0 l/m 10,0 km/h (2 Bft) 3 min
30.06.2015 14:26 22,8 C 28,5 C 26,9 C 29 % 79 % 1022 hPa 0,0 l/m 13,5 km/h (3 Bft) 3 min
30.06.2015 14:29 22,7 C 28,6 C 26,8 C 30 % 79 % 1022 hPa 0,0 l/m 4,4 km/h (1 Bft) 3 min
30.06.2015 14:32 22,7 C 28,7 C 26,4 C 30 % 79 % 1022 hPa 0,0 l/m 5,9 km/h (2 Bft) 3 min
30.06.2015 14:35 22,8 C 28,8 C 27,4 C 30 % 79 % 1022 hPa 0,0 l/m 10,3 km/h (2 Bft) 3 min
30.06.2015 14:38 22,8 C 28,8 C 26,8 C 28 % 79 % 1022 hPa 0,0 l/m 10,6 km/h (2 Bft) 3 min
30.06.2015 14:41 22,8 C 28,7 C 27,2 C 27 % 79 % 1022 hPa 0,0 l/m 11,6 km/h (2 Bft) 3 min
30.06.2015 14:44 22,7 C 28,7 C 26,4 C 27 % 79 % 1022 hPa 0,0 l/m 7,1 km/h (2 Bft) 3 min
30.06.2015 14:47 22,7 C 28,8 C 26,6 C 29 % 79 % 1022 hPa 0,0 l/m 10,0 km/h (2 Bft) 3 min
30.06.2015 14:50 22,7 C 28,9 C 26,7 C 29 % 79 % 1022 hPa 0,0 l/m 10,8 km/h (2 Bft) 3 min
30.06.2015 14:53 22,7 C 28,9 C 27,3 C 27 % 79 % 1022 hPa 0,0 l/m 15,8 km/h (3 Bft) 3 min
30.06.2015 14:56 22,7 C 28,8 C 27,3 C 28 % 79 % 1022 hPa 0,0 l/m 11,8 km/h (2 Bft) 3 min
30.06.2015 14:59 22,7 C 28,7 C 27,3 C 28 % 79 % 1022 hPa 0,0 l/m 10,5 km/h (2 Bft) 3 min
30.06.2015 15:02 22,7 C 28,8 C 27,5 C 28 % 79 % 1022 hPa 0,0 l/m 5,4 km/h (1 Bft) 3 min
30.06.2015 15:05 22,7 C 28,8 C 27,0 C 28 % 79 % 1022 hPa 0,0 l/m 14,4 km/h (3 Bft) 3 min
30.06.2015 15:08 22,7 C 28,8 C 27,1 C 27 % 79 % 1022 hPa 0,0 l/m 8,2 km/h (2 Bft) 3 min
30.06.2015 15:11 22,7 C 28,8 C 26,9 C 28 % 79 % 1022 hPa 0,0 l/m 15,3 km/h (3 Bft) 3 min
30.06.2015 15:14 22,7 C 28,8 C 27,1 C 27 % 79 % 1022 hPa 0,0 l/m 10,6 km/h (2 Bft) 3 min
30.06.2015 15:17 22,8 C 28,7 C 27,2 C 27 % 79 % 1022 hPa 0,0 l/m 4,2 km/h (1 Bft) 3 min
30.06.2015 15:20 22,7 C 28,8 C 27,5 C 28 % 79 % 1022 hPa 0,0 l/m 9,1 km/h (2 Bft) 3 min
30.06.2015 15:23 22,8 C 28,9 C 26,8 C 28 % 79 % 1022 hPa 0,0 l/m 11,3 km/h (2 Bft) 3 min
30.06.2015 15:26 22,7 C 28,8 C 26,8 C 27 % 79 % 1022 hPa 0,0 l/m 11,3 km/h (2 Bft) 3 min
30.06.2015 15:29 22,8 C 28,7 C 26,4 C 25 % 79 % 1022 hPa 0,0 l/m 5,9 km/h (2 Bft) 3 min
30.06.2015 15:32 22,8 C 28,7 C 26,9 C 26 % 79 % 1022 hPa 0,0 l/m 16,5 km/h (3 Bft) 3 min
30.06.2015 15:35 22,7 C 28,8 C 26,8 C 27 % 79 % 1022 hPa 0,0 l/m 9,4 km/h (2 Bft) 3 min
30.06.2015 15:38 22,7 C 29,0 C 26,5 C 28 % 79 % 1022 hPa 0,0 l/m 4,8 km/h (1 Bft) 3 min
30.06.2015 15:41 22,7 C 29,1 C 26,7 C 26 % 79 % 1022 hPa 0,0 l/m 7,5 km/h (2 Bft) 3 min
30.06.2015 15:44 22,7 C 29,1 C 27,3 C 26 % 79 % 1022 hPa 0,0 l/m 11,9 km/h (2 Bft) 3 min
30.06.2015 15:47 22,7 C 29,2 C 26,8 C 27 % 79 % 1022 hPa 0,0 l/m 11,3 km/h (2 Bft) 3 min
30.06.2015 15:50 22,7 C 29,2 C 26,8 C 27 % 79 % 1022 hPa 0,0 l/m 7,7 km/h (2 Bft) 3 min
30.06.2015 15:53 22,7 C 29,2 C 26,6 C 27 % 79 % 1022 hPa 0,0 l/m 7,7 km/h (2 Bft) 3 min
30.06.2015 15:56 22,7 C 29,2 C 26,7 C 27 % 79 % 1022 hPa 0,0 l/m 10,1 km/h (2 Bft) 3 min
30.06.2015 15:59 22,8 C 29,2 C 27,0 C 27 % 79 % 1022 hPa 0,0 l/m 10,5 km/h (2 Bft) 3 min
30.06.2015 16:02 22,8 C 29,2 C 27,1 C 26 % 79 % 1022 hPa 0,0 l/m 10,5 km/h (2 Bft) 3 min
30.06.2015 16:05 22,8 C 29,1 C 27,0 C 25 % 79 % 1022 hPa 0,0 l/m 7,3 km/h (2 Bft) 3 min
30.06.2015 16:08 22,8 C 29,1 C 27,1 C 26 % 79 % 1022 hPa 0,0 l/m 8,7 km/h (2 Bft) 3 min
30.06.2015 16:11 22,9 C 29,1 C 26,9 C 27 % 79 % 1022 hPa 0,0 l/m 8,5 km/h (2 Bft) 3 min
30.06.2015 16:14 22,9 C 29,1 C 27,0 C 25 % 79 % 1022 hPa 0,0 l/m 8,5 km/h (2 Bft) 3 min
30.06.2015 16:17 23,0 C 29,1 C 27,0 C 25 % 79 % 1022 hPa 0,0 l/m 8,6 km/h (2 Bft) 3 min
30.06.2015 16:20 23,0 C 29,1 C 26,9 C 26 % 79 % 1022 hPa 0,0 l/m 7,8 km/h (2 Bft) 3 min
30.06.2015 16:23 23,0 C 29,1 C 26,9 C 26 % 79 % 1022 hPa 0,0 l/m 4,5 km/h (1 Bft) 3 min
30.06.2015 16:26 23,0 C 29,1 C 26,5 C 26 % 79 % 1022 hPa 0,0 l/m 6,8 km/h (2 Bft) 3 min
30.06.2015 16:29 23,0 C 29,1 C 26,5 C 24 % 79 % 1022 hPa 0,0 l/m 6,7 km/h (2 Bft) 3 min
30.06.2015 16:32 23,0 C 29,2 C 26,8 C 25 % 79 % 1022 hPa 0,0 l/m 11,0 km/h (2 Bft) 3 min
30.06.2015 16:35 23,0 C 29,2 C 26,4 C 26 % 79 % 1022 hPa 0,0 l/m 5,6 km/h (1 Bft) 3 min
30.06.2015 16:38 23,0 C 29,2 C 26,4 C 25 % 79 % 1022 hPa 0,0 l/m 11,3 km/h (2 Bft) 3 min
30.06.2015 16:41 23,0 C 29,2 C 26,6 C 25 % 79 % 1022 hPa 0,0 l/m 8,3 km/h (2 Bft) 3 min
30.06.2015 16:44 23,0 C 29,2 C 27,0 C 24 % 79 % 1022 hPa 0,0 l/m 18,2 km/h (3 Bft) 3 min
30.06.2015 16:47 23,0 C 29,5 C 27,0 C 26 % 79 % 1021 hPa 0,0 l/m 4,6 km/h (1 Bft) 3 min
30.06.2015 16:50 22,9 C 29,6 C 27,1 C 24 % 79 % 1021 hPa 0,0 l/m 5,1 km/h (1 Bft) 3 min
30.06.2015 16:53 23,0 C 29,5 C 27,1 C 24 % 63 % 1021 hPa 0,0 l/m 13,0 km/h (3 Bft) 3 min
30.06.2015 16:56 22,9 C 29,4 C 26,7 C 24 % 63 % 1021 hPa 0,0 l/m 11,6 km/h (2 Bft) 3 min
30.06.2015 16:59 22,9 C 29,2 C 26,5 C 23 % 59 % 1022 hPa 0,0 l/m 6,1 km/h (2 Bft) 3 min
30.06.2015 17:02 22,9 C 29,1 C 26,4 C 24 % 59 % 1022 hPa 0,0 l/m 0,9 km/h (0 Bft) 3 min
30.06.2015 17:05 22,9 C 29,0 C 26,6 C 24 % 80 % 1021 hPa 0,0 l/m 8,3 km/h (2 Bft) 3 min
30.06.2015 17:08 22,9 C 29,2 C 27,0 C 25 % 80 % 1021 hPa 0,0 l/m 5,0 km/h (1 Bft) 3 min
30.06.2015 17:11 22,9 C 29,3 C 26,9 C 25 % 79 % 1021 hPa 0,0 l/m 6,1 km/h (2 Bft) 3 min
30.06.2015 17:14 22,9 C 29,5 C 27,1 C 24 % 79 % 1021 hPa 0,0 l/m 1,6 km/h (1 Bft) 3 min
30.06.2015 17:17 22,9 C 29,6 C 27,1 C 24 % 79 % 1021 hPa 0,0 l/m 3,1 km/h (1 Bft) 3 min
30.06.2015 17:20 22,9 C 29,5 C 26,9 C 23 % 79 % 1021 hPa 0,0 l/m 3,8 km/h (1 Bft) 3 min
30.06.2015 17:23 22,9 C 29,4 C 26,9 C 24 % 78 % 1021 hPa 0,0 l/m 1,2 km/h (1 Bft) 3 min
30.06.2015 17:26 22,8 C 29,3 C 26,7 C 23 % 78 % 1021 hPa 0,0 l/m 3,6 km/h (1 Bft) 3 min
30.06.2015 17:29 22,9 C 29,3 C 26,6 C 23 % 78 % 1021 hPa 0,0 l/m 6,5 km/h (2 Bft) 3 min
30.06.2015 17:32 22,9 C 29,1 C 27,0 C 24 % 78 % 1021 hPa 0,0 l/m 6,3 km/h (2 Bft) 3 min
30.06.2015 17:35 23,0 C 29,1 C 26,7 C 22 % 78 % 1021 hPa 0,0 l/m 11,8 km/h (2 Bft) 3 min
30.06.2015 17:38 23,0 C 29,1 C 26,4 C 22 % 79 % 1021 hPa 0,0 l/m 5,8 km/h (2 Bft) 3 min
30.06.2015 17:41 23,0 C 29,1 C 26,3 C 24 % 79 % 1021 hPa 0,0 l/m 6,5 km/h (2 Bft) 3 min
30.06.2015 17:44 23,0 C 29,1 C 26,2 C 24 % 79 % 1021 hPa 0,0 l/m 5,1 km/h (1 Bft) 3 min
30.06.2015 17:47 23,0 C 29,2 C 26,7 C 24 % 79 % 1021 hPa 0,0 l/m 5,3 km/h (1 Bft) 3 min
30.06.2015 17:50 23,0 C 29,1 C 26,8 C 25 % 78 % 1021 hPa 0,0 l/m 3,1 km/h (1 Bft) 3 min
30.06.2015 17:53 23,0 C 29,1 C 26,8 C 24 % 78 % 1021 hPa 0,0 l/m 3,1 km/h (1 Bft) 3 min
30.06.2015 17:56 23,0 C 29,1 C 26,3 C 25 % 77 % 1021 hPa 0,0 l/m 5,0 km/h (1 Bft) 3 min
30.06.2015 17:59 23,0 C 29,2 C 26,3 C 25 % 78 % 1021 hPa 0,0 l/m 4,5 km/h (1 Bft) 3 min
30.06.2015 18:02 23,0 C 29,1 C 26,3 C 24 % 78 % 1021 hPa 0,0 l/m 2,9 km/h (1 Bft) 3 min
30.06.2015 18:05 23,0 C 29,1 C 26,1 C 24 % 77 % 1021 hPa 0,0 l/m 2,3 km/h (1 Bft) 3 min
30.06.2015 18:08 23,0 C 29,1 C 26,5 C 25 % 77 % 1021 hPa 0,0 l/m 4,5 km/h (1 Bft) 3 min
30.06.2015 18:11 23,0 C 29,2 C 26,4 C 24 % 77 % 1021 hPa 0,0 l/m 4,1 km/h (1 Bft) 3 min
30.06.2015 18:14 23,0 C 29,2 C 26,2 C 24 % 77 % 1021 hPa 0,0 l/m 3,5 km/h (1 Bft) 3 min
30.06.2015 18:17 23,0 C 29,2 C 26,1 C 24 % 76 % 1021 hPa 0,0 l/m 6,1 km/h (2 Bft) 3 min
30.06.2015 18:20 23,0 C 29,2 C 26,1 C 24 % 76 % 1021 hPa 0,0 l/m 4,5 km/h (1 Bft) 3 min
30.06.2015 18:23 23,1 C 29,2 C 26,2 C 23 % 76 % 1021 hPa 0,0 l/m 5,2 km/h (1 Bft) 3 min
30.06.2015 18:26 23,0 C 29,2 C 26,4 C 23 % 74 % 1021 hPa 0,0 l/m 5,2 km/h (1 Bft) 3 min
30.06.2015 18:29 23,0 C 29,1 C 26,3 C 23 % 72 % 1021 hPa 0,0 l/m 3,9 km/h (1 Bft) 3 min
30.06.2015 18:32 23,0 C 29,1 C 26,2 C 24 % 72 % 1021 hPa 0,0 l/m 6,3 km/h (2 Bft) 3 min
30.06.2015 18:35 23,0 C 29,1 C 26,2 C 24 % 73 % 1021 hPa 0,0 l/m 4,5 km/h (1 Bft) 3 min
30.06.2015 18:38 23,0 C 29,2 C 26,3 C 25 % 71 % 1021 hPa 0,0 l/m 4,8 km/h (1 Bft) 3 min
30.06.2015 18:41 23,0 C 29,2 C 26,1 C 24 % 69 % 1021 hPa 0,0 l/m 4,8 km/h (1 Bft) 3 min
30.06.2015 18:44 23,0 C 29,2 C 26,3 C 25 % 67 % 1021 hPa 0,0 l/m 0,0 km/h (0 Bft) 3 min
30.06.2015 18:47 23,1 C 29,2 C 26,2 C 24 % 67 % 1021 hPa 0,0 l/m 0,0 km/h (0 Bft) 3 min
30.06.2015 18:50 23,0 C 29,1 C 26,3 C 25 % 66 % 1021 hPa 0,0 l/m 0,0 km/h (0 Bft) 3 min
30.06.2015 18:53 23,0 C 29,0 C 26,5 C 25 % 67 % 1021 hPa 0,0 l/m 0,0 km/h (0 Bft) 3 min
30.06.2015 18:56 23,0 C 29,0 C 26,4 C 25 % 66 % 1021 hPa 0,0 l/m 0,0 km/h (0 Bft) 3 min
30.06.2015 18:59 23,0 C 28,9 C 26,5 C 25 % 63 % 1021 hPa 0,0 l/m 0,1 km/h (0 Bft) 3 min
30.06.2015 19:02 23,0 C 28,8 C 26,6 C 26 % 62 % 1021 hPa 0,0 l/m 0,3 km/h (0 Bft) 3 min
30.06.2015 19:05 23,0 C 28,8 C 26,4 C 26 % 59 % 1021 hPa 0,0 l/m 5,6 km/h (1 Bft) 3 min
30.06.2015 19:08 23,0 C 28,8 C 26,6 C 26 % 57 % 1021 hPa 0,0 l/m 0,3 km/h (0 Bft) 3 min
30.06.2015 19:11 23,0 C 28,4 C 26,2 C 27 % 55 % 1021 hPa 0,0 l/m 0,1 km/h (0 Bft) 3 min
30.06.2015 19:14 23,0 C 28,4 C 26,5 C 27 % 55 % 1021 hPa 0,0 l/m 0,2 km/h (0 Bft) 3 min
30.06.2015 19:17 23,0 C 28,4 C 26,1 C 27 % 26 % 1021 hPa 0,0 l/m 0,1 km/h (0 Bft) 3 min
30.06.2015 19:20 23,0 C 28,4 C 26,2 C 28 % 25 % 1021 hPa 0,0 l/m 0,0 km/h (0 Bft) 3 min
30.06.2015 19:23 23,0 C 28,3 C 26,3 C 28 % 24 % 1021 hPa 0,0 l/m 0,0 km/h (0 Bft) 3 min
30.06.2015 19:26 23,0 C 28,2 C 26,2 C 29 % 23 % 1021 hPa 0,0 l/m 0,0 km/h (0 Bft) 3 min
30.06.2015 19:29 23,0 C 28,1 C 26,3 C 29 % 22 % 1021 hPa 0,0 l/m 0,0 km/h (0 Bft) 3 min
30.06.2015 19:32 23,0 C 28,0 C 26,2 C 29 % 21 % 1021 hPa 0,0 l/m 0,0 km/h (0 Bft) 3 min
30.06.2015 19:35 23,0 C 27,9 C 26,0 C 30 % 20 % 1021 hPa 0,0 l/m 0,0 km/h (0 Bft) 3 min
30.06.2015 19:38 23,0 C 27,9 C 26,0 C 30 % 20 % 1021 hPa 0,0 l/m 0,4 km/h (0 Bft) 3 min
30.06.2015 19:41 23,0 C 27,9 C 25,9 C 30 % 19 % 1021 hPa 0,0 l/m 0,1 km/h (0 Bft) 3 min
30.06.2015 19:44 23,0 C 27,7 C 26,1 C 31 % 18 % 1021 hPa 0,0 l/m 0,0 km/h (0 Bft) 3 min
30.06.2015 19:47 23,0 C 27,6 C 26,0 C 31 % 16 % 1021 hPa 0,0 l/m 0,1 km/h (0 Bft) 3 min
30.06.2015 19:50 23,0 C 27,4 C 25,6 C 32 % 16 % 1021 hPa 0,0 l/m 0,3 km/h (0 Bft) 3 min
30.06.2015 19:53 23,0 C 27,3 C 25,4 C 32 % 15 % 1021 hPa 0,0 l/m 6,8 km/h (2 Bft) 3 min
30.06.2015 19:56 23,0 C 27,2 C 25,4 C 32 % 15 % 1021 hPa 0,0 l/m 4,5 km/h (1 Bft) 3 min
30.06.2015 19:59 23,0 C 27,1 C 25,2 C 33 % 14 % 1021 hPa 0,0 l/m 3,3 km/h (1 Bft) 3 min
30.06.2015 20:02 23,1 C 27,0 C 25,2 C 33 % 14 % 1021 hPa 0,0 l/m 2,1 km/h (1 Bft) 3 min
30.06.2015 20:05 23,0 C 26,9 C 25,2 C 34 % 14 % 1021 hPa 0,0 l/m 0,0 km/h (0 Bft) 3 min
30.06.2015 20:08 23,0 C 26,8 C 25,1 C 34 % 13 % 1021 hPa 0,0 l/m 1,5 km/h (1 Bft) 3 min
30.06.2015 20:11 23,0 C 26,8 C 25,1 C 34 % 12 % 1021 hPa 0,0 l/m 5,6 km/h (1 Bft) 3 min
30.06.2015 20:14 23,0 C 26,5 C 25,3 C 35 % 12 % 1021 hPa 0,0 l/m 5,6 km/h (1 Bft) 3 min
30.06.2015 20:17 23,0 C 26,4 C 25,0 C 35 % 11 % 1021 hPa 0,0 l/m 7,1 km/h (2 Bft) 3 min
30.06.2015 20:20 23,0 C 26,2 C 24,9 C 36 % 11 % 1021 hPa 0,0 l/m 5,9 km/h (2 Bft) 3 min
30.06.2015 20:23 23,0 C 26,0 C 24,9 C 36 % 10 % 1021 hPa 0,0 l/m 8,9 km/h (2 Bft) 3 min
30.06.2015 20:26 23,0 C 25,9 C 24,9 C 36 % 10 % 1021 hPa 0,0 l/m 4,5 km/h (1 Bft) 3 min
30.06.2015 20:29 23,0 C 25,8 C 25,0 C 37 % 9 % 1021 hPa 0,0 l/m 3,4 km/h (1 Bft) 3 min
30.06.2015 20:32 22,9 C 25,6 C 24,7 C 38 % 8 % 1021 hPa 0,0 l/m 2,4 km/h (1 Bft) 3 min
30.06.2015 20:35 23,0 C 25,4 C 24,4 C 38 % 8 % 1021 hPa 0,0 l/m 4,0 km/h (1 Bft) 3 min
30.06.2015 20:38 23,0 C 25,3 C 24,4 C 39 % 7 % 1021 hPa 0,0 l/m 4,6 km/h (1 Bft) 3 min
30.06.2015 20:41 23,0 C 25,3 C 24,6 C 39 % 7 % 1021 hPa 0,0 l/m 4,3 km/h (1 Bft) 3 min
30.06.2015 20:44 23,0 C 25,2 C 24,2 C 39 % 6 % 1021 hPa 0,0 l/m 1,6 km/h (1 Bft) 3 min
30.06.2015 20:47 22,9 C 25,1 C 24,1 C 39 % 5 % 1021 hPa 0,0 l/m 3,8 km/h (1 Bft) 3 min
30.06.2015 20:50 23,0 C 25,1 C 24,0 C 39 % 5 % 1021 hPa 0,0 l/m 2,3 km/h (1 Bft) 3 min
30.06.2015 20:53 23,0 C 25,0 C 24,2 C 40 % 4 % 1021 hPa 0,0 l/m 2,3 km/h (1 Bft) 3 min
30.06.2015 20:56 23,0 C 25,0 C 24,1 C 40 % 4 % 1021 hPa 0,0 l/m 2,3 km/h (1 Bft) 3 min
30.06.2015 20:59 22,9 C 24,9 C 24,2 C 40 % 3 % 1021 hPa 0,0 l/m 1,0 km/h (0 Bft) 3 min
30.06.2015 21:02 23,0 C 24,8 C 23,9 C 40 % 2 % 1022 hPa 0,0 l/m 0,1 km/h (0 Bft) 0 min
30.06.2015 21:05 23,0 C 24,6 C 23,9 C 41 % 2 % 1022 hPa 0,0 l/m 0,0 km/h (0 Bft) 0 min
30.06.2015 21:08 23,0 C 24,6 C 23,9 C 41 % 2 % 1022 hPa 0,0 l/m 1,8 km/h (1 Bft) 0 min
30.06.2015 21:11 22,9 C 24,5 C 23,5 C 41 % 1 % 1022 hPa 0,0 l/m 0,3 km/h (0 Bft) 0 min
30.06.2015 21:14 23,0 C 24,4 C 23,5 C 42 % 1 % 1022 hPa 0,0 l/m 0,0 km/h (0 Bft) 0 min
30.06.2015 21:17 22,9 C 24,3 C 23,4 C 42 % 1 % 1022 hPa 0,0 l/m 0,0 km/h (0 Bft) 0 min
30.06.2015 21:20 23,0 C 24,2 C 23,4 C 43 % 1 % 1022 hPa 0,0 l/m 0,0 km/h (0 Bft) 0 min
30.06.2015 21:23 22,9 C 24,0 C 23,5 C 43 % 1 % 1022 hPa 0,0 l/m 0,0 km/h (0 Bft) 0 min
30.06.2015 21:26 22,9 C 23,9 C 23,6 C 44 % 0 % 1022 hPa 0,0 l/m 0,0 km/h (0 Bft) 0 min
30.06.2015 21:29 22,9 C 23,8 C 23,4 C 44 % 0 % 1022 hPa 0,0 l/m 0,0 km/h (0 Bft) 0 min
30.06.2015 21:32 22,9 C 23,8 C 23,0 C 44 % 0 % 1022 hPa 0,0 l/m 0,0 km/h (0 Bft) 0 min
30.06.2015 21:35 23,0 C 23,7 C 23,0 C 45 % 0 % 1022 hPa 0,0 l/m 0,0 km/h (0 Bft) 0 min
30.06.2015 21:38 23,0 C 23,6 C 23,1 C 45 % 0 % 1022 hPa 0,0 l/m 0,0 km/h (0 Bft) 0 min
30.06.2015 21:41 22,9 C 23,6 C 22,9 C 45 % 0 % 1022 hPa 0,0 l/m 0,0 km/h (0 Bft) 0 min
30.06.2015 21:44 23,0 C 23,5 C 23,2 C 46 % 0 % 1022 hPa 0,0 l/m 0,0 km/h (0 Bft) 0 min
30.06.2015 21:47 22,9 C 23,3 C 23,2 C 46 % 0 % 1022 hPa 0,0 l/m 0,0 km/h (0 Bft) 0 min
30.06.2015 21:50 22,9 C 23,2 C 22,9 C 46 % 0 % 1022 hPa 0,0 l/m 0,0 km/h (0 Bft) 0 min
30.06.2015 21:53 22,9 C 23,1 C 22,6 C 47 % 0 % 1022 hPa 0,0 l/m 0,0 km/h (0 Bft) 0 min
30.06.2015 21:56 22,9 C 23,0 C 22,6 C 48 % 0 % 1022 hPa 0,0 l/m 0,0 km/h (0 Bft) 0 min
30.06.2015 21:59 22,9 C 22,9 C 22,8 C 48 % 0 % 1022 hPa 0,0 l/m 0,0 km/h (0 Bft) 0 min
30.06.2015 22:02 22,9 C 22,8 C 22,8 C 48 % 0 % 1022 hPa 0,0 l/m 0,0 km/h (0 Bft) 0 min
30.06.2015 22:05 22,9 C 22,8 C 22,5 C 48 % 0 % 1022 hPa 0,0 l/m 0,0 km/h (0 Bft) 0 min
30.06.2015 22:08 22,9 C 22,7 C 22,0 C 49 % 0 % 1022 hPa 0,0 l/m 0,0 km/h (0 Bft) 0 min
30.06.2015 22:11 22,9 C 22,6 C 22,0 C 49 % 0 % 1022 hPa 0,0 l/m 0,0 km/h (0 Bft) 0 min
30.06.2015 22:14 22,9 C 22,5 C 22,5 C 50 % 0 % 1022 hPa 0,0 l/m 0,0 km/h (0 Bft) 0 min
30.06.2015 22:17 22,9 C 22,3 C 22,4 C 50 % 0 % 1022 hPa 0,0 l/m 0,0 km/h (0 Bft) 0 min
30.06.2015 22:20 22,9 C 22,3 C 22,2 C 50 % 0 % 1022 hPa 0,0 l/m 0,0 km/h (0 Bft) 0 min
30.06.2015 22:23 22,9 C 22,2 C 22,6 C 51 % 0 % 1022 hPa 0,0 l/m 0,0 km/h (0 Bft) 0 min
30.06.2015 22:26 22,9 C 22,1 C 22,5 C 51 % 0 % 1022 hPa 0,0 l/m 0,0 km/h (0 Bft) 0 min
30.06.2015 22:29 22,9 C 22,0 C 22,2 C 52 % 0 % 1022 hPa 0,0 l/m 0,0 km/h (0 Bft) 0 min
30.06.2015 22:32 23,0 C 22,0 C 22,0 C 52 % 0 % 1022 hPa 0,0 l/m 0,0 km/h (0 Bft) 0 min
30.06.2015 22:35 22,9 C 21,9 C 21,9 C 52 % 0 % 1022 hPa 0,0 l/m 0,0 km/h (0 Bft) 0 min
30.06.2015 22:38 22,9 C 21,8 C 21,7 C 52 % 0 % 1022 hPa 0,0 l/m 0,0 km/h (0 Bft) 0 min
30.06.2015 22:41 23,0 C 21,8 C 21,7 C 53 % 0 % 1022 hPa 0,0 l/m 0,0 km/h (0 Bft) 0 min
30.06.2015 22:44 23,0 C 21,7 C 22,1 C 53 % 0 % 1022 hPa 0,0 l/m 0,0 km/h (0 Bft) 0 min
30.06.2015 22:47 23,0 C 21,7 C 21,9 C 53 % 0 % 1022 hPa 0,0 l/m 0,0 km/h (0 Bft) 0 min
30.06.2015 22:50 23,0 C 21,6 C 21,6 C 53 % 0 % 1022 hPa 0,0 l/m 0,0 km/h (0 Bft) 0 min
30.06.2015 22:53 23,0 C 21,6 C 21,6 C 53 % 0 % 1022 hPa 0,0 l/m 0,0 km/h (0 Bft) 0 min
30.06.2015 22:56 23,0 C 21,5 C 21,8 C 54 % 0 % 1022 hPa 0,0 l/m 0,0 km/h (0 Bft) 0 min
30.06.2015 22:59 23,0 C 21,4 C 21,4 C 54 % 0 % 1022 hPa 0,0 l/m 0,0 km/h (0 Bft) 0 min
30.06.2015 23:02 23,0 C 21,4 C 21,8 C 54 % 0 % 1022 hPa 0,0 l/m 0,0 km/h (0 Bft) 0 min
30.06.2015 23:05 23,0 C 21,2 C 21,4 C 55 % 0 % 1022 hPa 0,0 l/m 0,0 km/h (0 Bft) 0 min
30.06.2015 23:08 23,0 C 21,2 C 21,3 C 55 % 0 % 1022 hPa 0,0 l/m 0,0 km/h (0 Bft) 0 min
30.06.2015 23:11 23,0 C 21,1 C 21,4 C 55 % 0 % 1022 hPa 0,0 l/m 0,0 km/h (0 Bft) 0 min
30.06.2015 23:14 23,0 C 21,1 C 21,4 C 56 % 0 % 1022 hPa 0,0 l/m 0,0 km/h (0 Bft) 0 min
30.06.2015 23:17 23,0 C 21,0 C 21,1 C 56 % 0 % 1022 hPa 0,0 l/m 0,0 km/h (0 Bft) 0 min
30.06.2015 23:20 23,0 C 20,9 C 20,7 C 56 % 0 % 1022 hPa 0,0 l/m 0,0 km/h (0 Bft) 0 min
30.06.2015 23:23 23,0 C 20,9 C 20,6 C 56 % 0 % 1022 hPa 0,0 l/m 0,0 km/h (0 Bft) 0 min
30.06.2015 23:26 23,0 C 20,8 C 20,6 C 57 % 0 % 1022 hPa 0,0 l/m 0,0 km/h (0 Bft) 0 min
30.06.2015 23:29 23,0 C 20,8 C 20,6 C 57 % 0 % 1022 hPa 0,0 l/m 0,0 km/h (0 Bft) 0 min
30.06.2015 23:32 22,9 C 20,8 C 20,6 C 57 % 0 % 1022 hPa 0,0 l/m 0,0 km/h (0 Bft) 0 min
30.06.2015 23:35 23,0 C 20,6 C 20,8 C 58 % 0 % 1022 hPa 0,0 l/m 0,0 km/h (0 Bft) 0 min
30.06.2015 23:38 23,0 C 20,6 C 20,7 C 58 % 0 % 1022 hPa 0,0 l/m 0,0 km/h (0 Bft) 0 min
30.06.2015 23:41 23,0 C 20,5 C 20,9 C 58 % 0 % 1022 hPa 0,0 l/m 0,0 km/h (0 Bft) 0 min
30.06.2015 23:44 22,9 C 20,4 C 20,9 C 59 % 0 % 1022 hPa 0,0 l/m 0,0 km/h (0 Bft) 0 min
30.06.2015 23:47 23,0 C 20,4 C 20,8 C 59 % 0 % 1022 hPa 0,0 l/m 0,0 km/h (0 Bft) 0 min
30.06.2015 23:50 22,9 C 20,3 C 20,8 C 59 % 0 % 1022 hPa 0,0 l/m 0,0 km/h (0 Bft) 0 min
30.06.2015 23:53 22,9 C 20,3 C 20,4 C 59 % 0 % 1022 hPa 0,0 l/m 0,0 km/h (0 Bft) 0 min
30.06.2015 23:56 22,9 C 20,2 C 20,7 C 60 % 0 % 1022 hPa 0,0 l/m 0,0 km/h (0 Bft) 0 min
30.06.2015 23:59 23,0 C 20,2 C 20,7 C 60 % 0 % 1022 hPa 0,0 l/m 0,0 km/h (0 Bft) 0 min
_ Min-Zeit 07:05 05:23 05:56 17:35 - 16:47 - 00:01 -
Minimum _ 21,6 C 14,1 C 15,2 C 22 % - 1021 hPa - 0,0 km/h (0 Bft) -
_ Max-Zeit 18:23 16:50 15:02 06:11 17:05 00:19 00:01 16:44 05:23
Maximum _ 23,1 C 29,6 C 27,5 C 81 % 80 % 1024 hPa 0,0 l/m 18,2 km/h
W-NW (3 Bft)
3 min
Durchschnitt _ 22,5 C 22,4 C 21,6 C 52 % #15:33 h 1023 hPa #0,0 l/m 3,2 km/h (1 Bft) #15:33 h